Location: Bucquoy
(50.1391°N, 2.7097°E)
Time: 06:47:38
(UTC+00:00)

CZ-2D R/B - Pass Details

Date: 06 May 2021
Orbit: 791 x 846 km, 98.7° (Epoch: 21 June)

Event Time Altitude Azimuth Distance (km) Brightness Sun altitude
Rises 00:48:26 0° 20° (NNE) 3,410 6.9 -21.9°
Reaches altitude 10° 00:51:00 10° 29° (NNE) 2,465 5.7 -21.8°
Maximum altitude 00:56:04 38° 96° (E) 1,259 3.1 -21.5°
Enters shadow 00:58:23 26° 143° (SE) 1,582 3.3 -21.4°
